Tracking 31013 objects as of 11-Jul-2025
HD Live streaming from Space Station
objects crossing your sky now

OBJECT D

Track OBJECT D now!
10-day predictions


NORAD ID: 51827
Int'l Code: 2022-019D
Perigee: 445.5 km
Apogee: 455.9 km
Inclination: 97.4 °
Period: 93.5 minutes
Semi major axis: 6821 km
RCS: Unknown
Launch date: February 27, 2022
Source: People's Republic of China (PRC)
Launch site: Wenchang Satellite Launch Center (WSC)
Your satellite tracking list
Your tracking list is empty




NASA's NSSDC Master Catalog

Two Line Element Set (TLE):
1 51827U 22019D   25192.17366994  .00010775  00000-0  26438-3 0  9997
2 51827  97.3946 269.9535 0007644 296.5061  63.5401 15.40851506186775
Source of the keplerian elements: AFSPC